This is the latest recevied weather packets stored in our database for station/object lw9ero. If no packets are shown the sender has not sent any weather packets the latest 10 day(s).
| Time | Temp. | Humidity | Pressure | Rain* | Wind** | Luminosity | Snow |
|---|---|---|---|---|---|---|---|
| 1778182734 | 11.67° C | 94% | 1004.9 hPa | 0 mm | - | - | - |
| 1778182126 | 12.22° C | 93% | 1004.5 hPa | 0 mm | - | - | - |
| 1778181520 | 12.22° C | 91% | 1005.2 hPa | 0 mm | - | - | - |
| 1778180914 | 12.78° C | 89% | 1005.6 hPa | 0 mm | - | - | - |
| 1778180308 | 12.78° C | 89% | 1005.9 hPa | 0 mm | - | - | - |
| 1778179702 | 12.78° C | 89% | 1006.3 hPa | 0 mm | - | - | - |
| 1778179098 | 12.78° C | 88% | 1006.2 hPa | 0 mm | - | - | - |
| 1778178489 | 13.33° C | 85% | 1006.2 hPa | 0 mm | - | - | - |
| 1778177883 | 13.33° C | 85% | 1006.6 hPa | 0 mm | - | - | - |
| 1778177278 | 12.78° C | 85% | 1006.3 hPa | 0 mm | - | - | - |
| 1778176670 | 13.33° C | 84% | 1006.4 hPa | 0 mm | - | - | - |
| 1778176064 | 13.33° C | 85% | 1006.2 hPa | 0 mm | - | - | - |
| 1778175458 | 12.78° C | 83% | 1006 hPa | 0 mm | - | - | - |
| 1778174852 | 13.33° C | 82% | 1005.9 hPa | 0 mm | - | - | - |
| 1778174246 | 13.33° C | 81% | 1005.9 hPa | 0 mm | - | - | - |
| 1778173646 | 13.33° C | 80% | 1006 hPa | 0 mm | - | - | - |
| 1778173034 | 13.33° C | 79% | 1006 hPa | 0 mm | - | - | - |
| 1778172429 | 13.89° C | 79% | 1006 hPa | 0 mm | - | - | - |
| 1778171821 | 13.89° C | 78% | 1006.3 hPa | 0 mm | - | - | - |
| 1778171215 | 13.33° C | 77% | 1006.6 hPa | 0 mm | - | - | - |
| 1778170610 | 13.89° C | 77% | 1006.4 hPa | 0 mm | - | - | - |
| 1778170004 | 13.89° C | 76% | 1006.3 hPa | 0 mm | - | - | - |
| 1778169397 | 14.44° C | 76% | 1006.4 hPa | 0 mm | - | - | - |
| 1778168790 | 14.44° C | 75% | 1006.3 hPa | 0 mm | - | - | - |
| 1778168185 | 14.44° C | 75% | 1006.4 hPa | 0 mm | - | - | - |
* Rain latest hour (hover to see other rain measurements)
** Current wind speed in m/s (hover to see current wind gust speed)